Location: Quispamsis
(45.4447°N, 65.9414°W)
Time: 04:18:44
(UTC-03:00)

Daily predictions for brighter satellites

Satellite Brightness Start Highest point End
(mag) Time Altitude Azimuth Time Altitude Azimuth Time Altitude Azimuth
Cosmos 2278 Rocket 2.7 00:01:40 10° NW 00:06:39 50° W 00:06:39 50° W
Cosmos 2181 Rocket 4.1 00:04:00 10° NNW 00:10:23 68° W 00:10:38 67° WSW
Cosmos 1709 Rocket 4.2 00:10:41 57° WSW 00:11:17 60° WNW 00:17:28 10° N
ALOS 2 4.4 00:14:00 27° NNE 00:14:00 27° NNE 00:16:26 10° N
Terra 3.5 00:16:55 26° W 00:16:55 26° W 00:20:21 10° NW
H-2A R/B 3.8 00:23:50 28° NW 00:23:50 28° NW 00:26:25 10° NNW
Meteor 2-13 Rocket 4.5 00:24:09 77° NNW 00:24:09 77° NNW 00:29:52 10° N
CZ-2C R/B 3.5 00:19:12 10° NNE 00:22:55 41° NE 00:22:55 41° NE
CZ-2C R/B 3.9 00:26:25 44° N 00:26:25 44° N 00:29:45 10° N
Cosmos 2219 Rocket 3.6 00:24:25 24° W 00:26:48 33° NW 00:31:54 10° N
BREEZE M DEB (TANK) 4.0 00:23:35 10° WSW 00:36:24 72° NNW 00:36:24 72° NNW
SL-16 R/B 2.9 00:39:45 48° NNE 00:39:45 48° NNE 00:43:48 10° NNE
Meteor 1-24 Rocket 4.2 00:34:19 10° N 00:39:15 58° NNE 00:39:15 58° NNE
Cosmos 2154 Rocket 4.4 00:47:05 53° NE 00:47:05 53° NE 00:52:07 10° NNE
Meteor 2-5 Rocket 4.2 00:40:43 10° NNW 00:45:41 61° NW 00:45:41 61° NW
Mayak 1.3 00:43:59 10° NNE 00:45:01 16° NE 00:45:01 16° NE
Cosmos 1943 Rocket 4.0 00:46:21 10° N 00:50:34 22° NE 00:51:31 21° ENE
ATLAS CENTAUR R/B 4.2 00:52:58 10° NW 00:53:18 12° NW 00:53:18 12° NW
Cosmos 2333 Rocket 4.0 00:55:01 20° W 00:57:21 26° NW 01:02:02 10° N
COSMOS 2455 3.8 01:06:02 10° NW 01:10:05 39° WNW 01:10:05 39° WNW
Cosmos 2237 Rocket 3.8 01:12:24 24° WNW 01:13:44 27° NW 01:18:28 10° N
Cosmos 2369 Rocket 3.0 01:08:36 10° NNW 01:13:27 46° NE 01:13:27 46° NE
Lacrosse 5 4.2 01:23:58 10° NW 01:27:54 22° N 01:31:50 10° NE
CENTAUR R/B 3.9 01:24:20 10° NW 01:30:30 37° W 01:30:30 37° W
ATLAS CENTAUR R/B 3.7 01:25:55 10° NW 01:33:12 44° WNW 01:33:12 44° WNW
USA 215 3.2 01:46:20 80° NNE 01:46:20 80° NNE 01:52:44 10° NW
Cosmos 2341 Rocket 4.3 01:51:14 59° NW 01:51:14 59° NW 01:56:43 10° N
CZ-2C R/B 4.4 02:00:17 10° NNW 02:04:26 23° WNW 02:04:26 23° WNW
Cosmos 2366 rocket 4.1 02:11:57 75° N 02:11:57 75° N 02:17:43 10° N
Cosmos 1603 4.4 02:14:31 47° NNW 02:14:31 47° NNW 02:19:16 10° NNE
Cosmos 1727 Rocket 4.1 02:09:25 10° N 02:14:54 72° N 02:14:54 72° N
Resurs 1-4 Rocket 4.3 02:20:08 10° ENE 02:22:53 14° E 02:23:30 14° E
SL-16 R/B 4.1 02:21:36 18° WNW 02:22:57 20° NW 02:27:02 10° N
Mayak 1.2 02:20:10 10° NNW 02:21:40 17° NW 02:21:40 17° NW
Cosmos 371 Rocket 4.4 02:31:23 41° N 02:31:23 41° N 02:34:44 10° NNE
Cosmos 1943 Rocket 3.0 02:29:21 10° NNW 02:32:59 42° NW 02:32:59 42° NW
Cosmos 1656 Rocket 4.1 02:31:00 10° NNW 02:36:38 57° ENE 02:36:52 56° ENE
Meteor 1-11 4.5 02:31:24 10° N 02:36:32 66° NE 02:36:32 66° NE
CZ-2D R/B 3.9 02:39:40 10° NE 02:43:42 21° E 02:44:26 21° ESE
Cosmos 540 Rocket 4.2 02:51:20 45° ENE 02:51:20 45° ENE 02:55:32 10° NNE
Cosmos 1763 Rocket 4.0 02:56:03 51° NNW 02:56:03 51° NNW 03:00:08 10° NNE
Cosmos 304 Rocket 4.5 02:56:22 52° NNE 02:56:22 52° NNE 03:00:02 10° NNE
Cosmos 2369 Rocket 4.0 02:53:07 10° NW 02:55:12 20° WNW 02:55:12 20° WNW
Gblst 52 Del rocket 4.4 02:59:26 67° NW 02:59:52 70° NNW 03:05:32 10° ENE
H-2A R/B 4.3 03:00:46 10° N 03:02:35 24° NNW 03:02:35 24° NNW
CBERS-1 4.4 02:59:43 10° NNE 03:04:31 56° E 03:04:31 56° E
Cosmos 2123 Rocket 4.3 02:59:07 10° N 03:05:20 61° ENE 03:06:49 48° SE
Cosmos 1821 Rocket 3.8 03:07:04 76° SSE 03:07:32 83° E 03:13:45 10° N
SL-08 R/B 3.6 03:12:36 62° N 03:12:36 62° N 03:16:39 10° NNW
Lacrosse 5 3.4 03:07:28 10° NW 03:12:08 35° NNE 03:16:46 10° E
Cosmos 1943 4.1 03:12:12 35° WNW 03:12:29 36° NW 03:17:42 10° NNE
BREEZE-M DEB (TANK) 3.6 03:11:47 63° W 03:12:49 84° NNW 03:31:06 10° ENE
Cosmos 2058 4.4 03:10:28 10° NNW 03:12:43 31° NNW 03:12:43 31° NNW
Cosmos 1626 4.4 03:11:22 10° NNW 03:12:40 21° NNW 03:12:40 21° NNW
Cosmos 1934 Rocket 3.9 03:16:05 67° SSE 03:16:48 75° E 03:22:53 10° NNE
SL-16 R/B 2.6 03:19:36 43° SE 03:21:43 72° ENE 03:27:55 10° N
Cosmos 2098 Rocket 3.4 03:22:56 86° E 03:22:56 86° E 03:27:36 10° N
USA 229 DEB 3.7 03:16:26 10° NW 03:23:36 79° SW 03:26:53 36° SSE
USA 229 3.7 03:16:32 10° NW 03:23:43 80° SW 03:27:08 35° SSE
Cosmos 1125 Rocket 3.9 03:19:10 10° NNW 03:23:19 53° NW 03:23:19 53° NW
COBE Rocket 4.2 03:21:15 10° N 03:25:47 60° NW 03:25:47 60° NW
Cosmos 1726 4.0 03:27:17 26° E 03:27:17 26° E 03:30:11 10° NNE
Cosmos 1605 Rocket 4.1 03:34:52 49° SSE 03:36:41 75° E 03:43:06 10° NNE
Cosmos 1315 Rocket 3.7 03:33:54 10° N 03:37:46 44° ENE 03:38:04 43° E
ADEOS Rocket 2.8 03:33:39 10° N 03:39:03 61° WNW 03:39:29 59° W
Cosmos 2221 2.7 03:43:51 68° NNW 03:43:51 68° NNW 03:47:42 10° N
IRS-1C 4.0 03:41:29 10° NNE 03:46:51 81° WNW 03:47:33 67° SW
NPP 3.8 03:44:22 10° N 03:49:40 57° WNW 03:50:12 54° W
Cosmos 1666 Rocket 3.8 03:48:39 10° N 03:53:05 68° E 03:53:56 53° SE
Cosmos 1805 Rocket 3.5 03:50:07 10° NNW 03:54:20 74° WNW 03:54:20 74° WNW
NOSS 3-1 (C) 4.0 03:49:07 10° NW 03:56:40 89° NE 04:05:04 10° SE
UNKNOWN OBJECT B 3.9 03:55:33 10° NNE 03:59:25 41° E 04:00:23 35° SE
Resurs 1-4 Rocket 2.0 03:58:04 10° NNE 04:03:21 80° WNW 04:04:34 54° SSW
ARIANE 5 R/B 2.5 03:59:53 10° NNE 04:05:09 89° E 04:06:37 50° SSW
Cosmos 1400 Rocket 4.0 04:03:21 10° NNW 04:05:42 30° NW 04:05:42 30° NW
Cosmos 1447 Rocket 4.4 04:07:15 10° NNW 04:13:26 76° W 04:16:41 30° S
CZ-2D R/B 3.9 04:10:14 10° NNE 04:14:09 52° E 04:15:19 38° SSE
COSMOS 2406 3.4 04:14:18 43° WSW 04:15:53 58° WNW 04:21:32 10° NNE
Cosmos 2100 Rocket 4.3 04:11:49 21° S 04:16:11 65° E 04:22:29 10° NNE
MOS 1 Rocket 3.1 04:12:28 10° N 04:16:50 71° WNW 04:17:37 56° SW
Cosmos 1980 Rocket 4.5 04:17:30 10° N 04:22:07 25° NE 04:26:44 10° ESE
Sich 1 3.0 04:17:51 10° NNW 04:22:11 59° W 04:22:39 55° SW
SL-27 R/B 2.6 04:24:06 59° NW 04:24:06 59° NW 04:27:20 10° NNE
CZ-2D R/B 2.3 04:18:54 10° N 04:24:08 55° WNW 04:25:45 40° WSW
Cosmos 292 Rocket 3.8 04:23:11 47° WSW 04:24:17 62° WNW 04:29:06 10° NNE
Okean O Rocket 4.2 04:22:51 10° NE 04:25:47 17° E 04:28:40 10° SE
Cosmos 1300 2.6 04:28:52 60° SW 04:29:26 75° W 04:33:16 10° N
Cosmos 2285 Rocket 4.2 04:26:51 35° SW 04:29:29 58° WNW 04:35:50 10° NNE
Cosmos 2278 3.8 04:26:35 10° NNW 04:32:16 77° ENE 04:37:54 10° SSE
IRS-1D 4.0 04:30:34 10° N 04:35:28 44° WNW 04:37:12 33° WSW
Tiangong 2 2.9 04:35:53 22° SE 04:35:53 22° SE 04:38:06 10° ESE
Cosmos 773 Rocket 4.1 04:32:47 29° SSW 04:35:30 79° ESE 04:40:51 10° NNE
Cosmos 1697 Rocket 3.7 04:31:29 10° NNW 04:36:59 49° ENE 04:42:28 10° SE
USA 161 3.1 04:38:02 24° NE 04:38:02 24° NE 04:39:11 10° N
Cosmos 2173 Rocket 4.0 04:33:03 19° S 04:37:47 85° E 04:44:12 10° N
Meteor 2-2 Rocket 4.3 04:34:29 23° S 04:38:23 89° W 04:44:28 10° N
BREEZE M DEB (TANK) 3.3 04:40:16 35° WSW 04:41:20 42° SSW 04:50:44 10° SE
Shenzhou-11 Module 3.3 04:42:07 29° SSE 04:42:07 29° SSE 04:44:37 10° E
CZ-3A R/B 4.4 04:39:06 10° WNW 04:50:25 - S 04:43:25 21° W
Cosmos 1455 3.7 04:41:46 10° SSE 04:45:11 34° E 04:48:36 10° NNE
Cosmos 1470 Rocket 3.4 04:41:26 10° N 04:45:46 80° W 04:49:10 16° S
MOZ.5/SAFIR/RUBIN 5/SL-8 4.1 04:44:20 33° SW 04:45:49 43° W 04:50:19 10° NNW
ADEOS II 2.9 04:43:24 10° NNE 04:48:31 49° E 04:53:35 10° S
Cosmos 1633 Rocket 3.8 04:51:06 10° NNW 04:55:00 32° W 04:55:56 29° WSW
Lacrosse 5 1.8 04:50:23 10° NW 04:55:26 68° SW 05:00:27 10° SE
Cosmos 1515 Rocket 3.5 04:53:33 23° SSW 04:56:17 78° W 05:00:44 10° N
COSMOS 2487 3.1 04:54:22 20° S 04:56:35 52° ESE 05:00:04 10° NNE
ADEOS 4.2 04:52:06 10° N 04:56:56 39° WNW 04:59:25 24° WSW
Cosmos 1459 Rocket 3.9 04:52:30 19° SSW 04:57:00 69° W 05:03:04 10° N
Cosmos 2082 Rocket 2.6 04:53:57 14° S 04:58:47 59° ESE 05:04:20 10° NNE
Cosmos 1726 3.5 05:01:54 21° W 05:02:19 21° WNW 05:05:16 10° NNW
Cosmos 2228 Rocket 3.3 05:02:17 24° SW 05:04:46 53° WNW 05:09:07 10° N
SL-16 R/B 3.8 05:04:43 19° WSW 05:05:55 20° W 05:10:22 10° NW
ATLAS 2AS CENTAUR R/B 3.8 05:05:13 10° NW 05:13:10 55° NE 05:20:35 10° ESE
CZ-4B R/B 4.2 05:10:40 10° NNE 05:15:56 47° E 05:21:05 10° S
BREEZE M DEB (TANK) 3.9 05:17:25 15° S 05:17:25 15° S 05:18:19 10° SSE
Cosmos 1328 Rocket 4.4 05:17:08 20° WSW 05:19:21 32° WNW 05:23:17 10° N
NOSS 3-1 (A) 4.3 05:12:16 10° NW 05:19:28 45° WSW 05:27:21 10° S
Cosmos 1656 3.7 05:15:03 10° NNW 05:20:39 58° WSW 05:26:13 10° S
Meteor 2-3 Rocket 3.8 05:15:22 10° NNW 05:20:55 61° W 05:26:32 10° S
PSLV R/B 3.7 05:20:59 10° NNE 05:25:21 75° ESE 05:29:38 10° S
Cosmos 1892 3.1 05:23:01 10° NNW 05:26:39 41° W 05:30:16 10° SSW
Cosmos 2369 4.1 05:22:20 10° NW 05:27:34 40° WSW 05:32:46 10° S
Cosmos 1869 4.1 05:24:33 10° S 05:28:25 53° E 05:32:19 10° NNE
PSLV R/B 3.9 05:24:35 10° N 05:28:45 80° WNW 05:32:53 10° SSW
Cosmos 1371 Rocket 4.3 05:23:32 10° NNW 05:28:47 75° ENE 05:34:03 10° SSE
Landsat 4 3.9 05:27:00 10° SSE 05:30:43 74° ENE 05:34:29 10° N
Cosmos 1408 3.2 05:27:13 10° N 05:30:48 58° E 05:34:21 10° SSE
Cosmos 2322 Rocket 4.3 05:27:39 10° N 05:32:40 31° NE 05:37:37 10° ESE
Cosmos 2233 Rocket 4.2 05:28:14 10° S 05:34:20 75° E 05:40:28 10° NNE
Cosmos 1825 2.8 05:30:35 10° N 05:34:22 61° E 05:38:08 10° SSE
OE (NEXTSAT) 4.4 05:33:45 15° WSW 05:36:37 82° SSE 05:40:12 10° E
PAYLOAD B 4.4 05:31:01 10° NNE 05:36:40 80° ESE 05:42:14 10° SSW
Cosmos 923 Rocket 4.3 05:34:15 11° SW 05:39:02 51° WNW 05:44:11 10° NNE
Cosmos 2016 Rocket 4.3 05:35:06 10° SSW 05:40:55 45° WNW 05:46:46 10° N
Resurs 1-4 Rocket 4.1 05:40:01 10° NNW 05:42:21 13° NW 05:44:41 10° W
BREEZE-M DEB (TANK) 3.6 05:38:56 10° W 05:42:46 63° SSW 05:54:19 10° ESE
ARIANE 5 R/B 4.4 05:40:41 10° NNW 05:43:32 15° WNW 05:46:21 10° W
Cosmos 1624 Rocket 4.1 05:39:09 10° NNW 05:44:27 84° ENE 05:49:40 10° SSE
Cosmos 1151 Rocket 4.0 05:41:22 11° SW 05:44:55 29° WNW 05:48:42 10° NNW
SL-16 R/B 3.9 05:39:54 10° NNW 05:45:11 38° NE 05:50:26 10° ESE
Meteor 2-12 Rocket 4.5 05:40:46 10° S 05:46:50 89° W 05:52:57 10° N
Cosmos 1833 Rocket 2.9 05:45:54 10° SW 05:51:28 58° WNW 05:57:03 10° NNE
Cosmos 1725 Rocket 4.3 05:49:50 10° SSW 05:55:47 49° WNW 06:01:47 10° N
Cosmos 1680 Rocket 3.9 05:51:49 10° SW 05:56:55 47° WNW 06:02:05 10° NNE
ATLAS 5 CENTAUR R/B 4.3 05:54:24 10° SSE 05:57:34 18° ESE 06:00:55 10° ENE
CZ-4B R/B 4.2 05:56:22 10° NNE 06:00:10 65° ESE 06:03:49 10° S
Cosmos 1707 Rocket 3.5 05:56:18 10° SSW 06:00:42 75° W 06:05:05 10° N
CZ-4B R/B 3.7 05:58:02 10° N 06:02:16 42° WNW 06:06:32 10° SW
Okean O Rocket 1.9 05:58:09 10° N 06:02:26 51° WNW 06:06:42 10° SSW
Okean-O 3.9 06:00:03 10° NNE 06:04:19 44° E 06:08:32 10° S
Cosmos 2112 Rocket 4.4 05:59:22 10° SW 06:04:30 48° WNW 06:09:42 10° NNE
IRS-1C Rocket 4.1 05:59:15 10° N 06:04:31 74° WNW 06:09:45 10° SSW
Cosmos 1980 Rocket 2.2 06:01:00 10° NNW 06:06:31 60° WSW 06:12:02 10° S
